owner,sensor,date,latitude,longitude,sea_surface_height_above_sea_level,qcFlag 
COMPS,ioos:station:USF.COMPS:ARP:1,2012-04-01T00:00:00Z,28.4330,-82.6670,0.623,1111122 
COMPS,ioos:station:USF.COMPS:ARP:1,2012-04-01T00:06:00Z,28.4330,-82.6670,0.628,1111122 
COMPS,ioos:station:USF.COMPS:ARP:1,2012-04-01T00:12:00Z,28.4330,-82.6670,0.631,1111122 
COMPS,ioos:station:USF.COMPS:ARP:1,2012-04-01T00:18:00Z,28.4330,-82.6670,0.628,1111122 
COMPS,ioos:station:USF.COMPS:ARP:1,2012-04-01T00:24:00Z,28.4330,-82.6670,0.631,1111122 
COMPS,ioos:station:USF.COMPS:ARP:1,2012-04-01T00:30:00Z,28.4330,-82.6670,0.63,1111122 
COMPS,ioos:station:USF.COMPS:ARP:1,2012-04-01T00:36:00Z,28.4330,-82.6670,0.625,1111122 
COMPS,ioos:station:USF.COMPS:ARP:1,2012-04-01T00:42:00Z,28.4330,-82.6670,0.617,1111122 
COMPS,ioos:station:USF.COMPS:ARP:1,2012-04-01T00:48:00Z,28.4330,-82.6670,0.609,1111122 
COMPS,ioos:station:USF.COMPS:ARP:1,2012-04-01T00:54:00Z,28.4330,-82.6670,0.601,1111122 
COMPS,ioos:station:USF.COMPS:ARP:1,2012-04-01T01:00:00Z,28.4330,-82.6670,0.586,1111122 
COMPS,ioos:station:USF.COMPS:ARP:1,2012-04-01T01:06:00Z,28.4330,-82.6670,0.576,1111122 
COMPS,ioos:station:USF.COMPS:ARP:1,2012-04-01T01:12:00Z,28.4330,-82.6670,0.567,1111122 
COMPS,ioos:station:USF.COMPS:ARP:1,2012-04-01T01:18:00Z,28.4330,-82.6670,0.551,1111122 
COMPS,ioos:station:USF.COMPS:ARP:1,2012-04-01T01:24:00Z,28.4330,-82.6670,0.534,1111122 
COMPS,ioos:station:USF.COMPS:ARP:1,2012-04-01T01:30:00Z,28.4330,-82.6670,0.515,1111122 
COMPS,ioos:station:USF.COMPS:ARP:1,2012-04-01T01:36:00Z,28.4330,-82.6670,0.495,1111122 
COMPS,ioos:station:USF.COMPS:ARP:1,2012-04-01T01:42:00Z,28.4330,-82.6670,0.471,1111122 
COMPS,ioos:station:USF.COMPS:ARP:1,2012-04-01T01:48:00Z,28.4330,-82.6670,0.447,1111122 
COMPS,ioos:station:USF.COMPS:ARP:1,2012-04-01T01:54:00Z,28.4330,-82.6670,0.428,1111122 
COMPS,ioos:station:USF.COMPS:ARP:1,2012-04-01T02:00:00Z,28.4330,-82.6670,0.407,1111122 
COMPS,ioos:station:USF.COMPS:ARP:1,2012-04-01T02:06:00Z,28.4330,-82.6670,0.386,1111122 
COMPS,ioos:station:USF.COMPS:ARP:1,2012-04-01T02:12:00Z,28.4330,-82.6670,0.365,1111122 
COMPS,ioos:station:USF.COMPS:ARP:1,2012-04-01T02:18:00Z,28.4330,-82.6670,0.342,1111122 
COMPS,ioos:station:USF.COMPS:ARP:1,2012-04-01T02:24:00Z,28.4330,-82.6670,0.321,1111122 
COMPS,ioos:station:USF.COMPS:ARP:1,2012-04-01T02:30:00Z,28.4330,-82.6670,0.302,1111122 
COMPS,ioos:station:USF.COMPS:ARP:1,2012-04-01T02:36:00Z,28.4330,-82.6670,0.283,1111122 
COMPS,ioos:station:USF.COMPS:ARP:1,2012-04-01T02:42:00Z,28.4330,-82.6670,0.261,1111122 
COMPS,ioos:station:USF.COMPS:ARP:1,2012-04-01T02:48:00Z,28.4330,-82.6670,0.239,1111122 
COMPS,ioos:station:USF.COMPS:ARP:1,2012-04-01T02:54:00Z,28.4330,-82.6670,0.219,1111122 
COMPS,ioos:station:USF.COMPS:ARP:1,2012-04-01T03:00:00Z,28.4330,-82.6670,0.201,1111122 
COMPS,ioos:station:USF.COMPS:ARP:1,2012-04-01T03:06:00Z,28.4330,-82.6670,0.181,1111122 
COMPS,ioos:station:USF.COMPS:ARP:1,2012-04-01T03:12:00Z,28.4330,-82.6670,0.159,1111122 
COMPS,ioos:station:USF.COMPS:ARP:1,2012-04-01T03:18:00Z,28.4330,-82.6670,0.141,1111122 
COMPS,ioos:station:USF.COMPS:ARP:1,2012-04-01T03:24:00Z,28.4330,-82.6670,0.125,1111122 
COMPS,ioos:station:USF.COMPS:ARP:1,2012-04-01T03:30:00Z,28.4330,-82.6670,0.106,1111122 
COMPS,ioos:station:USF.COMPS:ARP:1,2012-04-01T03:36:00Z,28.4330,-82.6670,0.09,1111122 
COMPS,ioos:station:USF.COMPS:ARP:1,2012-04-01T03:42:00Z,28.4330,-82.6670,0.072,1111122 
COMPS,ioos:station:USF.COMPS:ARP:1,2012-04-01T03:48:00Z,28.4330,-82.6670,0.056,1111122 
COMPS,ioos:station:USF.COMPS:ARP:1,2012-04-01T03:54:00Z,28.4330,-82.6670,0.038,1111122 
COMPS,ioos:station:USF.COMPS:ARP:1,2012-04-01T04:00:00Z,28.4330,-82.6670,0.023,1111122 
COMPS,ioos:station:USF.COMPS:ARP:1,2012-04-01T04:06:00Z,28.4330,-82.6670,0.007,1111122 
COMPS,ioos:station:USF.COMPS:ARP:1,2012-04-01T04:12:00Z,28.4330,-82.6670,-0.009,1111122 
COMPS,ioos:station:USF.COMPS:ARP:1,2012-04-01T04:18:00Z,28.4330,-82.6670,-0.024,1111122 
COMPS,ioos:station:USF.COMPS:ARP:1,2012-04-01T04:24:00Z,28.4330,-82.6670,-0.036,1111122 
COMPS,ioos:station:USF.COMPS:ARP:1,2012-04-01T04:30:00Z,28.4330,-82.6670,-0.046,1111122 
COMPS,ioos:station:USF.COMPS:ARP:1,2012-04-01T04:36:00Z,28.4330,-82.6670,-0.058,1111122 
COMPS,ioos:station:USF.COMPS:ARP:1,2012-04-01T04:42:00Z,28.4330,-82.6670,-0.071,1111122 
COMPS,ioos:station:USF.COMPS:ARP:1,2012-04-01T04:48:00Z,28.4330,-82.6670,-0.084,1111122 
COMPS,ioos:station:USF.COMPS:ARP:1,2012-04-01T04:54:00Z,28.4330,-82.6670,-0.097,1111122 
COMPS,ioos:station:USF.COMPS:ARP:1,2012-04-01T05:00:00Z,28.4330,-82.6670,-0.107,1111122 
COMPS,ioos:station:USF.COMPS:ARP:1,2012-04-01T05:06:00Z,28.4330,-82.6670,-0.117,1111122 
COMPS,ioos:station:USF.COMPS:ARP:1,2012-04-01T05:12:00Z,28.4330,-82.6670,-0.125,1111122 
COMPS,ioos:station:USF.COMPS:ARP:1,2012-04-01T05:18:00Z,28.4330,-82.6670,-0.135,1111122 
COMPS,ioos:station:USF.COMPS:ARP:1,2012-04-01T05:24:00Z,28.4330,-82.6670,-0.143,1111122 
COMPS,ioos:station:USF.COMPS:ARP:1,2012-04-01T05:30:00Z,28.4330,-82.6670,-0.151,1111122 
COMPS,ioos:station:USF.COMPS:ARP:1,2012-04-01T05:36:00Z,28.4330,-82.6670,-0.157,1111122 
COMPS,ioos:station:USF.COMPS:ARP:1,2012-04-01T05:42:00Z,28.4330,-82.6670,-0.162,1111122 
COMPS,ioos:station:USF.COMPS:ARP:1,2012-04-01T05:48:00Z,28.4330,-82.6670,-0.165,1111122 
COMPS,ioos:station:USF.COMPS:ARP:1,2012-04-01T05:54:00Z,28.4330,-82.6670,-0.172,1111122 
COMPS,ioos:station:USF.COMPS:ARP:1,2012-04-01T06:00:00Z,28.4330,-82.6670,-0.177,1111122 
COMPS,ioos:station:USF.COMPS:ARP:1,2012-04-01T06:06:00Z,28.4330,-82.6670,-0.185,1111122 
COMPS,ioos:station:USF.COMPS:ARP:1,2012-04-01T06:12:00Z,28.4330,-82.6670,-0.193,1111122 
COMPS,ioos:station:USF.COMPS:ARP:1,2012-04-01T06:18:00Z,28.4330,-82.6670,-0.199,1111122 
COMPS,ioos:station:USF.COMPS:ARP:1,2012-04-01T06:24:00Z,28.4330,-82.6670,-0.205,1111122 
COMPS,ioos:station:USF.COMPS:ARP:1,2012-04-01T06:30:00Z,28.4330,-82.6670,-0.209,1111122 
COMPS,ioos:station:USF.COMPS:ARP:1,2012-04-01T06:36:00Z,28.4330,-82.6670,-0.214,1111122 
COMPS,ioos:station:USF.COMPS:ARP:1,2012-04-01T06:42:00Z,28.4330,-82.6670,-0.219,1111122 
COMPS,ioos:station:USF.COMPS:ARP:1,2012-04-01T06:48:00Z,28.4330,-82.6670,-0.222,1111122 
COMPS,ioos:station:USF.COMPS:ARP:1,2012-04-01T06:54:00Z,28.4330,-82.6670,-0.228,1111122 
COMPS,ioos:station:USF.COMPS:ARP:1,2012-04-01T07:00:00Z,28.4330,-82.6670,-0.228,1111122 
COMPS,ioos:station:USF.COMPS:ARP:1,2012-04-01T07:06:00Z,28.4330,-82.6670,-0.231,1111122 
COMPS,ioos:station:USF.COMPS:ARP:1,2012-04-01T07:12:00Z,28.4330,-82.6670,-0.241,1111122 
COMPS,ioos:station:USF.COMPS:ARP:1,2012-04-01T07:18:00Z,28.4330,-82.6670,-0.243,1111122 
COMPS,ioos:station:USF.COMPS:ARP:1,2012-04-01T07:24:00Z,28.4330,-82.6670,-0.25,1111122 
COMPS,ioos:station:USF.COMPS:ARP:1,2012-04-01T07:30:00Z,28.4330,-82.6670,-0.258,1111122 
COMPS,ioos:station:USF.COMPS:ARP:1,2012-04-01T07:36:00Z,28.4330,-82.6670,-0.26,1111122 
COMPS,ioos:station:USF.COMPS:ARP:1,2012-04-01T07:42:00Z,28.4330,-82.6670,-0.258,1111122 
COMPS,ioos:station:USF.COMPS:ARP:1,2012-04-01T07:48:00Z,28.4330,-82.6670,-0.264,1111122 
COMPS,ioos:station:USF.COMPS:ARP:1,2012-04-01T07:54:00Z,28.4330,-82.6670,-0.261,1111122 
COMPS,ioos:station:USF.COMPS:ARP:1,2012-04-01T08:00:00Z,28.4330,-82.6670,-0.262,1111122 
COMPS,ioos:station:USF.COMPS:ARP:1,2012-04-01T08:06:00Z,28.4330,-82.6670,-0.258,1111122 
COMPS,ioos:station:USF.COMPS:ARP:1,2012-04-01T08:12:00Z,28.4330,-82.6670,-0.253,1111122 
COMPS,ioos:station:USF.COMPS:ARP:1,2012-04-01T08:18:00Z,28.4330,-82.6670,-0.25,1111122 
COMPS,ioos:station:USF.COMPS:ARP:1,2012-04-01T08:24:00Z,28.4330,-82.6670,-0.242,1111122 
COMPS,ioos:station:USF.COMPS:ARP:1,2012-04-01T08:30:00Z,28.4330,-82.6670,-0.239,1111122 
COMPS,ioos:station:USF.COMPS:ARP:1,2012-04-01T08:36:00Z,28.4330,-82.6670,-0.238,1111122 
COMPS,ioos:station:USF.COMPS:ARP:1,2012-04-01T08:42:00Z,28.4330,-82.6670,-0.234,1111122 
COMPS,ioos:station:USF.COMPS:ARP:1,2012-04-01T08:48:00Z,28.4330,-82.6670,-0.234,1111122 
COMPS,ioos:station:USF.COMPS:ARP:1,2012-04-01T08:54:00Z,28.4330,-82.6670,-0.226,1111122 
COMPS,ioos:station:USF.COMPS:ARP:1,2012-04-01T09:00:00Z,28.4330,-82.6670,-0.222,1111122 
COMPS,ioos:station:USF.COMPS:ARP:1,2012-04-01T09:06:00Z,28.4330,-82.6670,-0.221,1111122 
COMPS,ioos:station:USF.COMPS:ARP:1,2012-04-01T09:12:00Z,28.4330,-82.6670,-0.212,1111122 
COMPS,ioos:station:USF.COMPS:ARP:1,2012-04-01T09:18:00Z,28.4330,-82.6670,-0.211,1111122 
COMPS,ioos:station:USF.COMPS:ARP:1,2012-04-01T09:24:00Z,28.4330,-82.6670,-0.209,1111122 
COMPS,ioos:station:USF.COMPS:ARP:1,2012-04-01T09:30:00Z,28.4330,-82.6670,-0.199,1111122 
COMPS,ioos:station:USF.COMPS:ARP:1,2012-04-01T09:36:00Z,28.4330,-82.6670,-0.197,1111122 
COMPS,ioos:station:USF.COMPS:ARP:1,2012-04-01T09:42:00Z,28.4330,-82.6670,-0.195,1111122 
COMPS,ioos:station:USF.COMPS:ARP:1,2012-04-01T09:48:00Z,28.4330,-82.6670,-0.192,1111122 
COMPS,ioos:station:USF.COMPS:ARP:1,2012-04-01T09:54:00Z,28.4330,-82.6670,-0.197,1111122 
COMPS,ioos:station:USF.COMPS:ARP:1,2012-04-01T10:00:00Z,28.4330,-82.6670,-0.206,1111122 
COMPS,ioos:station:USF.COMPS:ARP:1,2012-04-01T10:06:00Z,28.4330,-82.6670,-0.206,1111122 
COMPS,ioos:station:USF.COMPS:ARP:1,2012-04-01T10:12:00Z,28.4330,-82.6670,-0.201,1111122 
COMPS,ioos:station:USF.COMPS:ARP:1,2012-04-01T10:18:00Z,28.4330,-82.6670,-0.198,1111122 
COMPS,ioos:station:USF.COMPS:ARP:1,2012-04-01T10:24:00Z,28.4330,-82.6670,-0.189,1111122 
COMPS,ioos:station:USF.COMPS:ARP:1,2012-04-01T10:30:00Z,28.4330,-82.6670,-0.178,1111122 
COMPS,ioos:station:USF.COMPS:ARP:1,2012-04-01T10:36:00Z,28.4330,-82.6670,-0.163,1111122 
COMPS,ioos:station:USF.COMPS:ARP:1,2012-04-01T10:42:00Z,28.4330,-82.6670,-0.153,1111122 
COMPS,ioos:station:USF.COMPS:ARP:1,2012-04-01T10:48:00Z,28.4330,-82.6670,-0.141,1111122 
COMPS,ioos:station:USF.COMPS:ARP:1,2012-04-01T10:54:00Z,28.4330,-82.6670,-0.127,1111122 
COMPS,ioos:station:USF.COMPS:ARP:1,2012-04-01T11:00:00Z,28.4330,-82.6670,-0.117,1111122 
COMPS,ioos:station:USF.COMPS:ARP:1,2012-04-01T11:06:00Z,28.4330,-82.6670,-0.108,1111122 
COMPS,ioos:station:USF.COMPS:ARP:1,2012-04-01T11:12:00Z,28.4330,-82.6670,-0.098,1111122 
COMPS,ioos:station:USF.COMPS:ARP:1,2012-04-01T11:18:00Z,28.4330,-82.6670,-0.089,1111122 
COMPS,ioos:station:USF.COMPS:ARP:1,2012-04-01T11:24:00Z,28.4330,-82.6670,-0.083,1111122 
COMPS,ioos:station:USF.COMPS:ARP:1,2012-04-01T11:30:00Z,28.4330,-82.6670,-0.074,1111122 
COMPS,ioos:station:USF.COMPS:ARP:1,2012-04-01T11:36:00Z,28.4330,-82.6670,-0.057,1111122 
COMPS,ioos:station:USF.COMPS:ARP:1,2012-04-01T11:42:00Z,28.4330,-82.6670,-0.05,1111122 
COMPS,ioos:station:USF.COMPS:ARP:1,2012-04-01T11:48:00Z,28.4330,-82.6670,-0.038,1111122 
COMPS,ioos:station:USF.COMPS:ARP:1,2012-04-01T11:54:00Z,28.4330,-82.6670,-0.026,1111122 
COMPS,ioos:station:USF.COMPS:ARP:1,2012-04-01T12:00:00Z,28.4330,-82.6670,-0.016,1111122 
COMPS,ioos:station:USF.COMPS:ARP:1,2012-04-01T12:06:00Z,28.4330,-82.6670,-0.006,1111122 
COMPS,ioos:station:USF.COMPS:ARP:1,2012-04-01T12:12:00Z,28.4330,-82.6670,0.007,1111122 
COMPS,ioos:station:USF.COMPS:ARP:1,2012-04-01T12:18:00Z,28.4330,-82.6670,0.016,1111122 
COMPS,ioos:station:USF.COMPS:ARP:1,2012-04-01T12:24:00Z,28.4330,-82.6670,0.026,1111122 
COMPS,ioos:station:USF.COMPS:ARP:1,2012-04-01T12:30:00Z,28.4330,-82.6670,0.038,1111122 
COMPS,ioos:station:USF.COMPS:ARP:1,2012-04-01T12:36:00Z,28.4330,-82.6670,0.046,1111122 
COMPS,ioos:station:USF.COMPS:ARP:1,2012-04-01T12:42:00Z,28.4330,-82.6670,0.059,1111122 
COMPS,ioos:station:USF.COMPS:ARP:1,2012-04-01T12:48:00Z,28.4330,-82.6670,0.07,1111122 
COMPS,ioos:station:USF.COMPS:ARP:1,2012-04-01T12:54:00Z,28.4330,-82.6670,0.077,1111122 
COMPS,ioos:station:USF.COMPS:ARP:1,2012-04-01T13:00:00Z,28.4330,-82.6670,0.099,1111122 
COMPS,ioos:station:USF.COMPS:ARP:1,2012-04-01T13:06:00Z,28.4330,-82.6670,0.105,1111122 
COMPS,ioos:station:USF.COMPS:ARP:1,2012-04-01T13:12:00Z,28.4330,-82.6670,0.111,1111122 
COMPS,ioos:station:USF.COMPS:ARP:1,2012-04-01T13:18:00Z,28.4330,-82.6670,0.126,1111122 
COMPS,ioos:station:USF.COMPS:ARP:1,2012-04-01T13:24:00Z,28.4330,-82.6670,0.133,1111122 
COMPS,ioos:station:USF.COMPS:ARP:1,2012-04-01T13:30:00Z,28.4330,-82.6670,0.142,1111122 
COMPS,ioos:station:USF.COMPS:ARP:1,2012-04-01T13:36:00Z,28.4330,-82.6670,0.152,1111122 
COMPS,ioos:station:USF.COMPS:ARP:1,2012-04-01T13:42:00Z,28.4330,-82.6670,0.164,1111122 
COMPS,ioos:station:USF.COMPS:ARP:1,2012-04-01T13:48:00Z,28.4330,-82.6670,0.174,1111122 
COMPS,ioos:station:USF.COMPS:ARP:1,2012-04-01T13:54:00Z,28.4330,-82.6670,0.178,1111122 
COMPS,ioos:station:USF.COMPS:ARP:1,2012-04-01T14:00:00Z,28.4330,-82.6670,0.185,1111122 
COMPS,ioos:station:USF.COMPS:ARP:1,2012-04-01T14:06:00Z,28.4330,-82.6670,0.191,1111122 
COMPS,ioos:station:USF.COMPS:ARP:1,2012-04-01T14:12:00Z,28.4330,-82.6670,0.188,1111122 
COMPS,ioos:station:USF.COMPS:ARP:1,2012-04-01T14:18:00Z,28.4330,-82.6670,0.193,1111122 
COMPS,ioos:station:USF.COMPS:ARP:1,2012-04-01T14:24:00Z,28.4330,-82.6670,0.194,1111122 
COMPS,ioos:station:USF.COMPS:ARP:1,2012-04-01T14:30:00Z,28.4330,-82.6670,0.187,1111122 
COMPS,ioos:station:USF.COMPS:ARP:1,2012-04-01T14:36:00Z,28.4330,-82.6670,0.18,1111122 
COMPS,ioos:station:USF.COMPS:ARP:1,2012-04-01T14:42:00Z,28.4330,-82.6670,0.185,1111122 
COMPS,ioos:station:USF.COMPS:ARP:1,2012-04-01T14:48:00Z,28.4330,-82.6670,0.191,1111122 
COMPS,ioos:station:USF.COMPS:ARP:1,2012-04-01T14:54:00Z,28.4330,-82.6670,0.193,1111122 
COMPS,ioos:station:USF.COMPS:ARP:1,2012-04-02T12:00:00Z,28.4330,-82.6670,-0.16,1111122 
COMPS,ioos:station:USF.COMPS:ARP:1,2012-04-02T12:06:00Z,28.4330,-82.6670,-0.145,1111122 
COMPS,ioos:station:USF.COMPS:ARP:1,2012-04-02T12:12:00Z,28.4330,-82.6670,-0.129,1111122 
COMPS,ioos:station:USF.COMPS:ARP:1,2012-04-02T12:18:00Z,28.4330,-82.6670,-0.111,1111122 
COMPS,ioos:station:USF.COMPS:ARP:1,2012-04-02T12:24:00Z,28.4330,-82.6670,-0.096,1111122 
COMPS,ioos:station:USF.COMPS:ARP:1,2012-04-02T12:30:00Z,28.4330,-82.6670,-0.075,1111122 
COMPS,ioos:station:USF.COMPS:ARP:1,2012-04-02T12:36:00Z,28.4330,-82.6670,-0.056,1111122 
COMPS,ioos:station:USF.COMPS:ARP:1,2012-04-02T12:42:00Z,28.4330,-82.6670,-0.036,1111122 
COMPS,ioos:station:USF.COMPS:ARP:1,2012-04-02T12:48:00Z,28.4330,-82.6670,-0.015,1111122 
COMPS,ioos:station:USF.COMPS:ARP:1,2012-04-02T12:54:00Z,28.4330,-82.6670,0.006,1111122 
COMPS,ioos:station:USF.COMPS:ARP:1,2012-04-02T13:00:00Z,28.4330,-82.6670,0.025,1111122 
COMPS,ioos:station:USF.COMPS:ARP:1,2012-04-02T13:06:00Z,28.4330,-82.6670,0.042,1111122 
COMPS,ioos:station:USF.COMPS:ARP:1,2012-04-02T13:12:00Z,28.4330,-82.6670,0.058,1111122 
COMPS,ioos:station:USF.COMPS:ARP:1,2012-04-02T13:18:00Z,28.4330,-82.6670,0.072,1111122 
COMPS,ioos:station:USF.COMPS:ARP:1,2012-04-02T13:24:00Z,28.4330,-82.6670,0.088,1111122 
COMPS,ioos:station:USF.COMPS:ARP:1,2012-04-02T13:30:00Z,28.4330,-82.6670,0.103,1111122 
COMPS,ioos:station:USF.COMPS:ARP:1,2012-04-02T13:36:00Z,28.4330,-82.6670,0.117,1111122 
COMPS,ioos:station:USF.COMPS:ARP:1,2012-04-02T13:42:00Z,28.4330,-82.6670,0.132,1111122 
COMPS,ioos:station:USF.COMPS:ARP:1,2012-04-02T13:48:00Z,28.4330,-82.6670,0.146,1111122 
COMPS,ioos:station:USF.COMPS:ARP:1,2012-04-02T13:54:00Z,28.4330,-82.6670,0.158,1111122 
COMPS,ioos:station:USF.COMPS:ARP:1,2012-04-02T14:00:00Z,28.4330,-82.6670,0.169,1111122 
COMPS,ioos:station:USF.COMPS:ARP:1,2012-04-02T14:06:00Z,28.4330,-82.6670,0.18,1111122 
COMPS,ioos:station:USF.COMPS:ARP:1,2012-04-02T14:12:00Z,28.4330,-82.6670,0.189,1111122 
COMPS,ioos:station:USF.COMPS:ARP:1,2012-04-02T14:18:00Z,28.4330,-82.6670,0.199,1111122 
COMPS,ioos:station:USF.COMPS:ARP:1,2012-04-02T14:24:00Z,28.4330,-82.6670,0.208,1111122 
COMPS,ioos:station:USF.COMPS:ARP:1,2012-04-02T14:30:00Z,28.4330,-82.6670,0.222,1111122 
COMPS,ioos:station:USF.COMPS:ARP:1,2012-04-02T14:36:00Z,28.4330,-82.6670,0.228,1111122 
COMPS,ioos:station:USF.COMPS:ARP:1,2012-04-02T14:42:00Z,28.4330,-82.6670,0.238,1111122 
COMPS,ioos:station:USF.COMPS:ARP:1,2012-04-02T14:48:00Z,28.4330,-82.6670,0.249,1111122 
COMPS,ioos:station:USF.COMPS:ARP:1,2012-04-02T14:54:00Z,28.4330,-82.6670,0.253,1111122 
COMPS,ioos:station:USF.COMPS:ARP:1,2012-04-02T15:00:00Z,28.4330,-82.6670,0.261,1111122 
COMPS,ioos:station:USF.COMPS:ARP:1,2012-04-02T15:06:00Z,28.4330,-82.6670,0.27,1111122 
COMPS,ioos:station:USF.COMPS:ARP:1,2012-04-02T15:12:00Z,28.4330,-82.6670,0.27,1111122 
COMPS,ioos:station:USF.COMPS:ARP:1,2012-04-02T15:18:00Z,28.4330,-82.6670,0.274,1111122 
COMPS,ioos:station:USF.COMPS:ARP:1,2012-04-02T15:24:00Z,28.4330,-82.6670,0.282,1111122 
COMPS,ioos:station:USF.COMPS:ARP:1,2012-04-02T15:30:00Z,28.4330,-82.6670,0.282,1111122 
COMPS,ioos:station:USF.COMPS:ARP:1,2012-04-02T15:36:00Z,28.4330,-82.6670,0.284,1111122 
COMPS,ioos:station:USF.COMPS:ARP:1,2012-04-02T15:42:00Z,28.4330,-82.6670,0.271,1111122 
COMPS,ioos:station:USF.COMPS:ARP:1,2012-04-02T15:48:00Z,28.4330,-82.6670,0.268,1111122 
COMPS,ioos:station:USF.COMPS:ARP:1,2012-04-02T15:54:00Z,28.4330,-82.6670,0.259,1111122 
COMPS,ioos:station:USF.COMPS:ARP:1,2012-04-02T16:00:00Z,28.4330,-82.6670,0.246,1111122 
COMPS,ioos:station:USF.COMPS:ARP:1,2012-04-02T16:06:00Z,28.4330,-82.6670,0.235,1111122 
COMPS,ioos:station:USF.COMPS:ARP:1,2012-04-02T16:12:00Z,28.4330,-82.6670,0.232,1111122 
COMPS,ioos:station:USF.COMPS:ARP:1,2012-04-02T16:18:00Z,28.4330,-82.6670,0.23,1111122 
COMPS,ioos:station:USF.COMPS:ARP:1,2012-04-02T16:24:00Z,28.4330,-82.6670,0.227,1111122 
COMPS,ioos:station:USF.COMPS:ARP:1,2012-04-02T16:30:00Z,28.4330,-82.6670,0.227,1111122 
COMPS,ioos:station:USF.COMPS:ARP:1,2012-04-02T16:36:00Z,28.4330,-82.6670,0.228,1111122 
COMPS,ioos:station:USF.COMPS:ARP:1,2012-04-02T16:42:00Z,28.4330,-82.6670,0.229,1111122 
COMPS,ioos:station:USF.COMPS:ARP:1,2012-04-02T16:48:00Z,28.4330,-82.6670,0.225,1111122 
COMPS,ioos:station:USF.COMPS:ARP:1,2012-04-02T16:54:00Z,28.4330,-82.6670,0.218,1111122 
COMPS,ioos:station:USF.COMPS:ARP:1,2012-04-02T17:00:00Z,28.4330,-82.6670,0.208,1111122 
COMPS,ioos:station:USF.COMPS:ARP:1,2012-04-02T17:06:00Z,28.4330,-82.6670,0.196,1111122 
COMPS,ioos:station:USF.COMPS:ARP:1,2012-04-02T17:12:00Z,28.4330,-82.6670,0.185,1111122 
COMPS,ioos:station:USF.COMPS:ARP:1,2012-04-02T17:18:00Z,28.4330,-82.6670,0.175,1111122 
COMPS,ioos:station:USF.COMPS:ARP:1,2012-04-02T17:24:00Z,28.4330,-82.6670,0.166,1111122 
COMPS,ioos:station:USF.COMPS:ARP:1,2012-04-02T17:30:00Z,28.4330,-82.6670,0.155,1111122 
COMPS,ioos:station:USF.COMPS:ARP:1,2012-04-02T17:36:00Z,28.4330,-82.6670,0.141,1111122 
COMPS,ioos:station:USF.COMPS:ARP:1,2012-04-02T17:42:00Z,28.4330,-82.6670,0.129,1111122 
COMPS,ioos:station:USF.COMPS:ARP:1,2012-04-02T17:48:00Z,28.4330,-82.6670,0.117,1111122 
COMPS,ioos:station:USF.COMPS:ARP:1,2012-04-02T17:54:00Z,28.4330,-82.6670,0.103,1111122 
COMPS,ioos:station:USF.COMPS:ARP:1,2012-04-02T18:00:00Z,28.4330,-82.6670,0.09,1111122 
COMPS,ioos:station:USF.COMPS:ARP:1,2012-04-02T18:06:00Z,28.4330,-82.6670,0.075,1111122 
COMPS,ioos:station:USF.COMPS:ARP:1,2012-04-02T18:12:00Z,28.4330,-82.6670,0.063,1111122 
COMPS,ioos:station:USF.COMPS:ARP:1,2012-04-02T18:18:00Z,28.4330,-82.6670,0.049,1111122 
COMPS,ioos:station:USF.COMPS:ARP:1,2012-04-02T18:24:00Z,28.4330,-82.6670,0.041,1111122 
COMPS,ioos:station:USF.COMPS:ARP:1,2012-04-02T18:30:00Z,28.4330,-82.6670,0.03,1111122 
COMPS,ioos:station:USF.COMPS:ARP:1,2012-04-02T18:36:00Z,28.4330,-82.6670,0.021,1111122 
COMPS,ioos:station:USF.COMPS:ARP:1,2012-04-02T18:42:00Z,28.4330,-82.6670,0.017,1111122 
COMPS,ioos:station:USF.COMPS:ARP:1,2012-04-02T18:48:00Z,28.4330,-82.6670,0.009,1111122 
COMPS,ioos:station:USF.COMPS:ARP:1,2012-04-02T18:54:00Z,28.4330,-82.6670,0.001,1111122 
COMPS,ioos:station:USF.COMPS:ARP:1,2012-04-02T19:00:00Z,28.4330,-82.6670,-0.01,1111122 
COMPS,ioos:station:USF.COMPS:ARP:1,2012-04-02T19:06:00Z,28.4330,-82.6670,-0.021,1111122 
COMPS,ioos:station:USF.COMPS:ARP:1,2012-04-02T19:12:00Z,28.4330,-82.6670,-0.033,1111122 
COMPS,ioos:station:USF.COMPS:ARP:1,2012-04-02T19:18:00Z,28.4330,-82.6670,-0.047,1111122 
COMPS,ioos:station:USF.COMPS:ARP:1,2012-04-02T19:24:00Z,28.4330,-82.6670,-0.062,1111122 
COMPS,ioos:station:USF.COMPS:ARP:1,2012-04-02T19:30:00Z,28.4330,-82.6670,-0.073,1111122 
COMPS,ioos:station:USF.COMPS:ARP:1,2012-04-02T19:36:00Z,28.4330,-82.6670,-0.085,1111122 
COMPS,ioos:station:USF.COMPS:ARP:1,2012-04-02T19:42:00Z,28.4330,-82.6670,-0.097,1111122 
COMPS,ioos:station:USF.COMPS:ARP:1,2012-04-02T19:48:00Z,28.4330,-82.6670,-0.108,1111122 
COMPS,ioos:station:USF.COMPS:ARP:1,2012-04-02T19:54:00Z,28.4330,-82.6670,-0.121,1111122 
COMPS,ioos:station:USF.COMPS:ARP:1,2012-04-02T20:00:00Z,28.4330,-82.6670,-0.131,1111122 
COMPS,ioos:station:USF.COMPS:ARP:1,2012-04-02T20:06:00Z,28.4330,-82.6670,-0.14,1111122 
COMPS,ioos:station:USF.COMPS:ARP:1,2012-04-02T20:12:00Z,28.4330,-82.6670,-0.15,1111122 
COMPS,ioos:station:USF.COMPS:ARP:1,2012-04-02T20:18:00Z,28.4330,-82.6670,-0.16,1111122 
COMPS,ioos:station:USF.COMPS:ARP:1,2012-04-02T20:24:00Z,28.4330,-82.6670,-0.17,1111122 
COMPS,ioos:station:USF.COMPS:ARP:1,2012-04-02T20:30:00Z,28.4330,-82.6670,-0.177,1111122 
COMPS,ioos:station:USF.COMPS:ARP:1,2012-04-02T20:36:00Z,28.4330,-82.6670,-0.184,1111122 
COMPS,ioos:station:USF.COMPS:ARP:1,2012-04-02T20:42:00Z,28.4330,-82.6670,-0.189,1111122 
COMPS,ioos:station:USF.COMPS:ARP:1,2012-04-02T20:48:00Z,28.4330,-82.6670,-0.195,1111122 
COMPS,ioos:station:USF.COMPS:ARP:1,2012-04-02T20:54:00Z,28.4330,-82.6670,-0.197,1111122 
COMPS,ioos:station:USF.COMPS:ARP:1,2012-04-02T21:00:00Z,28.4330,-82.6670,-0.204,1111122 
COMPS,ioos:station:USF.COMPS:ARP:1,2012-04-02T21:06:00Z,28.4330,-82.6670,-0.211,1111122 
COMPS,ioos:station:USF.COMPS:ARP:1,2012-04-02T21:12:00Z,28.4330,-82.6670,-0.214,1111122 
COMPS,ioos:station:USF.COMPS:ARP:1,2012-04-02T21:18:00Z,28.4330,-82.6670,-0.219,1111122 
COMPS,ioos:station:USF.COMPS:ARP:1,2012-04-02T21:24:00Z,28.4330,-82.6670,-0.224,1111122 
COMPS,ioos:station:USF.COMPS:ARP:1,2012-04-02T21:30:00Z,28.4330,-82.6670,-0.224,1111122 
COMPS,ioos:station:USF.COMPS:ARP:1,2012-04-02T21:36:00Z,28.4330,-82.6670,-0.223,1111122 
COMPS,ioos:station:USF.COMPS:ARP:1,2012-04-02T21:42:00Z,28.4330,-82.6670,-0.216,1111122 
COMPS,ioos:station:USF.COMPS:ARP:1,2012-04-02T21:48:00Z,28.4330,-82.6670,-0.206,1111122 
COMPS,ioos:station:USF.COMPS:ARP:1,2012-04-02T21:54:00Z,28.4330,-82.6670,-0.194,1111122 
COMPS,ioos:station:USF.COMPS:ARP:1,2012-04-02T22:00:00Z,28.4330,-82.6670,-0.184,1111122 
COMPS,ioos:station:USF.COMPS:ARP:1,2012-04-02T22:06:00Z,28.4330,-82.6670,-0.169,1111122 
COMPS,ioos:station:USF.COMPS:ARP:1,2012-04-02T22:12:00Z,28.4330,-82.6670,-0.165,1111122 
COMPS,ioos:station:USF.COMPS:ARP:1,2012-04-02T22:18:00Z,28.4330,-82.6670,-0.158,1111122 
COMPS,ioos:station:USF.COMPS:ARP:1,2012-04-02T22:24:00Z,28.4330,-82.6670,-0.15,1111122 
COMPS,ioos:station:USF.COMPS:ARP:1,2012-04-02T22:30:00Z,28.4330,-82.6670,-0.144,1111122 
COMPS,ioos:station:USF.COMPS:ARP:1,2012-04-02T22:36:00Z,28.4330,-82.6670,-0.136,1111122 
COMPS,ioos:station:USF.COMPS:ARP:1,2012-04-02T22:42:00Z,28.4330,-82.6670,-0.128,1111122 
COMPS,ioos:station:USF.COMPS:ARP:1,2012-04-02T22:48:00Z,28.4330,-82.6670,-0.119,1111122 
COMPS,ioos:station:USF.COMPS:ARP:1,2012-04-02T22:54:00Z,28.4330,-82.6670,-0.11,1111122 
COMPS,ioos:station:USF.COMPS:ARP:1,2012-04-02T23:00:00Z,28.4330,-82.6670,-0.102,1111122 
COMPS,ioos:station:USF.COMPS:ARP:1,2012-04-02T23:06:00Z,28.4330,-82.6670,-0.093,1111122 
COMPS,ioos:station:USF.COMPS:ARP:1,2012-04-02T23:12:00Z,28.4330,-82.6670,-0.081,1111122 
COMPS,ioos:station:USF.COMPS:ARP:1,2012-04-02T23:18:00Z,28.4330,-82.6670,-0.071,1111122 
COMPS,ioos:station:USF.COMPS:ARP:1,2012-04-02T23:24:00Z,28.4330,-82.6670,-0.059,1111122 
COMPS,ioos:station:USF.COMPS:ARP:1,2012-04-02T23:30:00Z,28.4330,-82.6670,-0.046,1111122 
COMPS,ioos:station:USF.COMPS:ARP:1,2012-04-02T23:36:00Z,28.4330,-82.6670,-0.034,1111122 
COMPS,ioos:station:USF.COMPS:ARP:1,2012-04-02T23:42:00Z,28.4330,-82.6670,-0.02,1111122 
COMPS,ioos:station:USF.COMPS:ARP:1,2012-04-02T23:48:00Z,28.4330,-82.6670,-0.007,1111122 
COMPS,ioos:station:USF.COMPS:ARP:1,2012-04-02T23:54:00Z,28.4330,-82.6670,0.008,1111122 